Location: Sark
(49.4440°N, 2.3620°W)
Time: 22:45:15

N. Korean satellite - Visible Passes

Search period start: 21 March 2018 00:00
Search period end: 31 March 2018 01:00
Orbit: 460 x 512 km, 97.2° (Epoch: 21 March)

Date Brightness Start Highest point End Pass type
(mag) Time Alt. Az. Time Alt. Az. Time Alt. Az.
21 Mar 9.9 18:55:54 10° SW 18:58:31 18° W 19:01:09 10° NW visible
24 Mar 10.5 19:19:50 10° W 19:20:45 11° W 19:21:40 10° WNW visible
28 Mar 10.4 20:17:39 10° WSW 20:18:51 11° W 20:20:03 10° WNW visible
